sat.trackr.live / text

‹ back to catalog

HORS 5

NORAD 67283 · 2025-313AM

PAYLOAD ACTIVE UNKNOWN

§ Identity

Operator
Country
CIS
Launch date
2025-12-28
Launch site
VOSTO
Launch vehicle
Mass (kg)
RCS (m²)

External: N2YO · Heavens-Above · Gunter

§ Orbital elements

Epoch: 2026-05-24T18:38:01.442112Z

Period
94.52 min
Inclination
97.3939°
Eccentricity
0.0011966
Mean motion
15.23567532 rev/d
Perigee alt
486.9 km
Apogee alt
503.3 km
Semi-major
6,873.2 km
B*
2.3749e-4
RAAN
220.0007°
Arg perigee
84.0248°
Mean anomaly
276.2353°
Rev number
2,240

§ Raw data

HORS 51 67283U 25313AM  26144.77640558  .00005619  00000+0  23749-3 0  99972 67283  97.3939 220.0007 0011966  84.0248 276.2353 15.23567532 22403

JSON: /api/v1/satellites/67283 · /tle

For live sub-satellite position, see the globe view (requires WebGL).

§ Visibility from observer

Set your observer location to see the next 7 days of passes ≥ 10°. The values pass through the URL so the page stays shareable.

No JS? Fill the form by hand. The geolocation button needs JavaScript.